TimeCDT,TemperatureF,Dew PointF,Humidity,Sea Level PressureIn,VisibilityMPH,Wind Direction,Wind SpeedMPH,Gust SpeedMPH,PrecipitationIn,Events,Conditions,WindDirDegrees,DateUTC
12:54 AM,62.1,51.1,67,29.64,10.0,SSW,15.0,-,N/A,,Clear,200,2012-10-17 05:54:00
1:54 AM,61.0,50.0,67,29.64,10.0,South,13.8,-,N/A,,Clear,190,2012-10-17 06:54:00
2:54 AM,59.0,50.0,72,29.63,10.0,South,13.8,-,N/A,,Clear,180,2012-10-17 07:54:00
3:54 AM,57.9,50.0,75,29.62,10.0,South,16.1,23.0,N/A,,Clear,180,2012-10-17 08:54:00
4:54 AM,57.0,50.0,77,29.62,10.0,South,13.8,-,N/A,,Clear,190,2012-10-17 09:54:00
5:54 AM,57.0,50.0,77,29.62,10.0,South,11.5,-,N/A,,Clear,180,2012-10-17 10:54:00
6:54 AM,57.0,52.0,83,29.60,10.0,South,11.5,-,N/A,,Clear,180,2012-10-17 11:54:00
7:54 AM,57.0,52.0,83,29.60,10.0,South,15.0,-,N/A,,Partly Cloudy,180,2012-10-17 12:54:00
8:54 AM,59.0,53.1,81,29.59,10.0,South,13.8,21.9,N/A,,Clear,180,2012-10-17 13:54:00
9:54 AM,61.0,54.0,78,29.57,10.0,South,18.4,-,N/A,,Clear,190,2012-10-17 14:54:00
10:54 AM,63.0,55.0,75,29.56,10.0,South,20.7,27.6,N/A,,Clear,190,2012-10-17 15:54:00
11:51 AM,64.4,55.4,73,29.55,10.0,South,17.3,27.6,N/A,,Mostly Cloudy,190,2012-10-17 16:51:00
11:54 AM,64.0,57.0,78,29.54,10.0,South,19.6,25.3,N/A,,Mostly Cloudy,190,2012-10-17 16:54:00
12:54 PM,66.0,57.0,73,29.52,10.0,South,18.4,34.5,N/A,,Overcast,190,2012-10-17 17:54:00
1:54 PM,66.0,57.9,75,29.49,10.0,SSW,20.7,33.4,N/A,,Overcast,200,2012-10-17 18:54:00
2:54 PM,64.9,57.9,78,29.47,10.0,SSW,19.6,29.9,N/A,,Overcast,200,2012-10-17 19:54:00
3:54 PM,64.9,59.0,81,29.45,10.0,South,18.4,27.6,N/A,,Overcast,190,2012-10-17 20:54:00
4:19 PM,64.4,60.8,88,29.44,10.0,South,15.0,23.0,N/A,,Overcast,190,2012-10-17 21:19:00
4:52 PM,66.2,60.8,83,29.43,10.0,South,23.0,34.5,N/A,,Overcast,180,2012-10-17 21:52:00
4:54 PM,66.0,60.1,81,29.42,10.0,South,20.7,34.5,N/A,,Overcast,180,2012-10-17 21:54:00
5:52 PM,64.4,60.8,88,29.39,10.0,South,15.0,21.9,N/A,,Overcast,170,2012-10-17 22:52:00
5:54 PM,64.0,61.0,90,29.38,10.0,South,15.0,-,N/A,,Overcast,170,2012-10-17 22:54:00
6:52 PM,64.4,60.8,88,29.35,10.0,South,13.8,-,N/A,Thunderstorm,Overcast,170,2012-10-17 23:52:00
6:54 PM,64.0,61.0,90,29.34,10.0,South,15.0,-,0.00,Rain-Thunderstorm,Light Rain,170,2012-10-17 23:54:00
7:23 PM,62.6,60.8,94,29.35,4.0,SSE,23.0,31.1,0.07,Rain-Thunderstorm,Heavy Rain,160,2012-10-18 00:23:00
7:29 PM,62.6,60.8,94,29.38,3.0,WSW,25.3,38.0,0.11,Rain-Thunderstorm,Rain,240,2012-10-18 00:29:00
7:34 PM,60.8,60.8,100,29.40,2.5,West,20.7,38.0,0.17,Rain-Thunderstorm,Heavy Rain,260,2012-10-18 00:34:00
7:39 PM,60.8,57.2,88,29.39,3.0,WNW,13.8,31.1,0.18,Rain-Thunderstorm,Rain,290,2012-10-18 00:39:00
7:54 PM,59.0,57.0,93,29.40,9.0,WNW,11.5,-,0.21,Rain-Thunderstorm,Light Rain,300,2012-10-18 00:54:00
8:12 PM,59.0,57.2,94,29.43,10.0,WNW,8.1,-,0.01,Rain-Thunderstorm,Light Rain,290,2012-10-18 01:12:00
8:21 PM,59.0,57.2,94,29.42,10.0,Variable,4.6,-,0.01,,Overcast,0,2012-10-18 01:21:00
8:54 PM,59.0,57.9,96,29.43,10.0,South,4.6,-,0.01,,Overcast,190,2012-10-18 01:54:00
9:51 PM,55.4,53.6,94,29.46,4.0,WNW,19.6,34.5,0.14,Rain,Rain,300,2012-10-18 02:51:00
9:54 PM,55.0,54.0,96,29.45,5.0,WNW,21.9,34.5,0.14,Rain,Light Rain,300,2012-10-18 02:54:00
10:54 PM,54.0,51.1,90,29.47,10.0,WNW,10.4,18.4,0.02,Rain,Light Rain,300,2012-10-18 03:54:00
11:54 PM,53.1,52.0,96,29.48,10.0,WSW,8.1,-,0.00,,Scattered Clouds,250,2012-10-18 04:54:00